User: anonymous   Login
Location: Unspecified
(0.0000°N, 0.0000°E)
Time: 19:58:43
(UTC+00:00)
Language:

COSMOS 2490 - Orbit

View from above orbital plane
View from above orbital plane
View from above satellite
View from above satellite

Ground track
Ground track

The orbit data is extracted from the following two-line orbital elements,

1 39485U 13076C   18172.11827362  .00000020  00000-0  70840-4 0  9990
2 39485  82.4805 187.0802 0021533 355.6704   4.4178 12.42891888203592
Epoch (UTC): 21 June 2018 02:50:18
Eccentricity: 0.0021533
inclination: 82.4805°
perigee height: 1477 km
apogee height: 1511 km
right ascension of ascending node: 187.0802°
argument of perigee: 355.6704°
revolutions per day: 12.42891888
mean anomaly at epoch: 4.4178°
orbit number at epoch: 20359

The dashed part of the orbit path shows where the satellite is in the earth's shadow,  

DLR